Terminal Aerodrome Forecast
Issued by NWS Cleveland, OH

Home | Current Version | Previous Version | Graphics & Text | Print | Product List | Glossary Off
Versions: 1 2 3 4 5 6 7 8 9 10 11 12 13 14 15

000
FTUS41 KCLE 171100
TAFERI
TAF
KERI 171137Z 1712/1812 25005KT P6SM OVC009
      TEMPO 1712/1714 5SM BR OVC006
     FM171500 27007KT P6SM SCT008 OVC012
     FM171900 26008KT P6SM SCT020
     FM180100 22005KT P6SM SKC=

USA.gov is the U.S. government's official web portal to all federal, state and local government web resources and services.